Location: Kapuskasing
(49.3803°N, 82.4001°W)
Time: 15:09:28
(UTC-05:00)

RS-44 - Pass Details

Date: 13 December 2025
Orbit: 1174 x 1511 km, 82.5° (Epoch: 21 January)

Event Time Altitude Azimuth Distance (km) Brightness Sun altitude
Exits shadow 05:06:47 13° 340° (NNW) 3,401 ? -29.8°
Drops below altitude 10° 05:08:11 10° 349° (N) 3,620 ? -29.5°
Sets 05:12:31 0° 9° (N) 4,554 ? -28.8°
